Weather in Sylva

Russia / Sverdlovsk Oblast     57°18′32″N   58°46′25″E
temp.,
°C
wind,
m/s
gust,
m/s
humid.,
%
clouds,
%
prec.,
mm/h
press.,
hPa
HPBL,
m
5 august, thu
thu523:00+19ene227691 0.1 101119
02:00+17w118421 0.0 101117
05:00+17ssw117992 0.0 101015
08:00+21e236945 0.0 1009147
11:00+21ssw4971100 0.1 1010514
14:00+28wsw464362 0.0 10081584
17:00+25wnw445611 0.0 10081298
20:00+20nw488322 0.2 1009552
6 august, fri
fri623:00+15nw4994100 0.2 1010458
02:00+14nw3885100 0.0 1010723
05:00+14wnw3989100 0.0 1010464
08:00+14nw41086100 0.0 1011633
11:00+19nw69578 0.0 10111167
14:00+21nnw685024 0.0 10111518
17:00+20nw575392 0.0 10121621
20:00+18nw486068 0.0 1013896
7 august, sat
sat723:00+13nw311750 0.0 1014314
02:00+9wnw28890 0.0 1014161
05:00+8wnw23950 0.0 101562
08:00+12nw48722 0.0 1015386
11:00+17nw575452 0.0 10151309
14:00+19nw574438 0.0 10141694
17:00+19nw5743100 0.0 10151938
20:00+15n49674 0.0 1016693
8 august, sun
sun823:00+9wnw29890 0.0 1017189
02:00+8nw311963 0.0 1017318
05:00+8nw4129514 0.0 1018459
08:00+11nw510782 0.0 1018551
11:00+16nw57563 0.0 1017947
14:00+20nnw57500 0.0 10171289
17:00+20nnw56505 0.0 10181390
20:00+17nnw376932 0.0 1019277
9 august, mon
mon923:00+11nw25958 0.0 102086
02:00+9nw229759 0.0 102033
05:00+8wnw229789 0.0 102129
08:00+12nw378598 0.0 1021309
11:00+19nnw355343 0.0 1020866
14:00+22nnw4642100 0.0 10191201
17:00+22nw4647100 0.0 10191235
20:00+18nw2574100 0.0 1019124